GFSGL_sfc_temp_318.txt.gz
Temp
68 68 67 68 68 67 66 65 64 63 63 62 62 61 63 63 64 63 64 66 68 68 68 67 68 69 68 69 70 69 67 67 64 68 70 71 69 70 72 72 73 72 74
71 69 69 69 69 67 66 65 66 64 64 63 63 63 62 63 64 65 67 68 67 67 68 68 68 73 69 68 68 67 66 67 65 62 67 68 67 69 69 68 72 76 72
71 69 69 68 68 67 66 65 65 64 65 66 66 65 65 65 66 66 66 67 67 67 68 68 68 68 68 69 68 67 66 68 66 65 64 68 69 69 67 67 68 68 73
71 71 68 68 68 68 67 67 67 68 68 69 69 69 68 68 68 67 68 67 67 69 68 69 69 69 68 68 68 66 66 63 63 64 65 66 67 67 66 64 64 66 66
70 69 69 70 70 70 69 69 69 68 69 70 68 69 68 70 72 68 68 68 68 69 69 70 70 71 71 69 67 64 63 61 61 61 62 63 64 64 62 64 62 63 64
70 71 71 71 72 71 71 70 70 70 71 70 70 70 69 72 70 68 69 69 69 68 67 69 71 72 71 69 68 68 65 60 59 59 60 60 61 62 64 63 61 59 56
72 71 72 73 72 72 72 71 71 70 71 70 71 71 70 71 68 66 68 68 68 68 68 69 70 75 71 69 68 67 66 65 65 62 59 61 61 62 63 62 61 59 58
75 74 74 73 72 72 70 69 70 71 70 70 70 71 71 73 68 65 66 68 69 69 69 69 68 70 70 69 69 68 67 66 67 70 64 64 64 64 62 63 62 61 62
74 74 73 73 73 71 69 68 69 69 70 71 71 68 68 70 67 64 64 69 69 69 71 70 70 69 70 67 67 66 65 66 70 67 65 64 64 63 64 63 61 60 60
75 75 76 76 75 74 75 74 72 72 69 70 69 71 71 71 67 63 62 70 69 70 71 72 69 69 68 64 66 66 63 64 66 67 65 65 66 67 65 64 63 60 62
78 77 76 76 74 74 73 74 73 71 71 70 71 70 70 70 70 63 60 68 70 70 71 72 72 64 61 59 61 67 65 66 66 63 65 66 68 70 69 65 64 65 63
76 75 75 74 75 75 70 71 71 70 69 68 68 69 72 71 65 64 61 58 67 69 69 72 72 63 60 57 60 62 60 60 63 63 64 65 67 68 68 68 67 67 68
75 74 74 74 74 71 71 69 71 69 69 69 70 71 72 73 73 62 62 60 59 63 70 69 64 60 56 57 56 58 59 62 62 62 63 65 68 68 68 67 67 67 67
73 73 73 72 72 73 74 74 73 72 72 71 71 69 73 73 73 73 71 69 62 63 64 67 67 64 63 64 64 63 62 64 64 64 64 67 70 66 67 68 65 66 64
75 75 74 76 74 73 73 74 74 73 72 72 71 72 71 71 73 63 63 69 71 65 63 67 68 69 69 70 71 71 70 67 64 66 66 66 68 68 67 68 66 66 62
74 75 76 77 78 77 75 74 65 63 60 56 55 63 73 62 58 56 55 53 52 51 61 66 67 68 68 68 69 70 72 71 71 64 67 66 66 68 68 68 67 66 64
72 73 74 73 76 75 75 75 73 72 58 57 54 53 51 60 55 52 51 49 48 49 63 65 66 67 67 68 69 67 57 57 58 57 57 55 56 57 58 65 66 64 64
74 64 73 75 75 76 77 76 78 76 75 76 61 56 56 50 49 48 45 54 59 54 59 59 60 62 62 60 59 58 59 60 57 57 56 57 55 55 55 55 55 54 55
75 76 76 77 76 74 76 76 77 75 75 75 77 70 55 49 46 47 48 56 57 57 58 58 58 57 57 58 59 60 60 60 59 58 56 56 55 54 54 54 54 51 51
78 70 71 78 78 77 78 77 77 76 76 76 76 75 69 61 60 59 56 60 61 60 61 60 59 59 57 57 57 58 59 60 60 60 58 56 56 56 55 55 55 53 53
81 82 73 79 78 78 78 74 77 78 73 74 76 66 55 62 68 68 63 65 63 64 63 62 60 61 61 61 59 60 61 62 61 59 57 57 57 55 56 57 57 57 56
82 82 83 83 82 80 81 81 81 80 78 77 72 70 51 60 60 62 63 68 69 66 66 64 63 61 63 61 60 60 61 60 59 59 59 59 59 58 58 57 56 56 56
82 82 83 83 83 76 74 77 81 75 68 64 70 68 63 60 64 69 69 69 67 66 64 62 62 62 63 62 64 63 61 58 57 58 57 55 56 57 58 57 56 55 55
82 82 83 82 82 82 82 80 72 58 63 65 71 73 72 72 71 69 70 68 67 66 64 64 63 64 61 62 64 58 57 55 57 57 54 55 55 54 56 57 58 56 55
85 82 80 78 80 81 66 62 67 70 75 74 73 72 72 71 71 69 65 65 65 67 67 66 65 65 66 63 66 57 39 33 48 39 53 52 53 54 57 59 58 55 56
85 83 66 65 64 68 71 78 76 76 75 73 73 73 73 70 68 68 67 66 65 66 64 63 62 63 63 63 59 41 33 31 42 32 42 51 54 55 58 58 58 58 58

GFSGL_sfc_temp_321.txt.gz
Temp
66 64 65 65 65 66 62 61 60 60 59 58 58 59 60 61 60 60 63 64 64 65 65 65 66 67 66 66 66 66 65 63 60 64 63 64 63 63 66 65 67 67 66
66 64 64 67 66 65 64 63 64 63 62 59 60 60 60 60 60 61 61 65 63 63 64 65 66 70 65 65 65 63 62 62 59 58 61 60 60 63 63 63 67 71 66
67 67 66 65 65 65 64 64 63 62 59 60 60 59 59 60 60 60 61 62 62 63 63 63 63 63 62 64 65 63 63 63 60 57 60 60 60 62 60 61 61 61 68
67 67 65 65 65 65 64 61 60 60 60 59 60 59 60 60 61 61 61 61 61 63 63 63 63 64 62 63 63 62 62 60 58 58 58 60 60 62 60 59 61 60 60
66 66 65 66 64 65 61 61 60 60 61 60 59 59 59 61 65 61 61 61 61 61 62 63 65 67 70 67 63 62 59 58 57 56 55 58 59 60 57 59 58 60 58
67 66 67 67 63 62 61 60 59 60 60 60 60 60 60 66 67 66 64 60 61 60 60 61 63 68 67 68 68 68 64 59 56 54 55 55 56 58 61 58 57 57 53
64 67 66 63 63 62 62 61 60 60 61 61 61 61 61 62 66 65 67 61 60 59 59 60 63 70 68 65 66 66 66 66 65 58 55 55 56 60 57 58 58 55 56
64 65 64 63 63 63 62 61 61 61 62 61 61 62 62 64 66 64 64 61 60 60 61 61 60 62 64 63 63 62 63 63 63 64 62 62 60 62 58 61 59 57 58
64 64 64 64 63 63 62 62 65 66 65 67 65 62 61 62 63 64 62 60 60 60 62 62 61 61 64 64 66 63 65 64 66 64 64 63 62 62 62 56 57 53 54
65 65 65 65 64 63 62 63 65 65 63 65 66 63 63 62 63 62 61 60 59 61 60 62 65 65 64 63 62 62 60 63 64 60 60 60 61 61 64 62 60 53 53
65 65 65 65 64 64 63 63 63 62 62 61 61 62 62 62 63 61 59 60 63 61 60 62 64 62 59 58 57 59 60 65 62 59 59 57 59 60 63 66 60 59 53
65 65 64 64 66 67 63 65 63 62 60 60 60 60 64 64 61 62 60 59 63 62 63 66 64 61 59 58 57 58 58 60 57 56 54 59 61 62 65 64 61 61 63
65 64 64 64 65 65 65 61 61 60 59 59 58 59 62 63 65 61 60 59 59 59 64 65 62 58 57 58 57 57 58 58 58 58 58 61 63 65 66 62 62 61 61
63 63 63 63 63 63 63 63 61 64 61 60 60 59 60 62 62 62 61 60 59 58 60 60 61 61 60 62 60 61 58 58 59 60 61 63 65 65 64 59 63 64 58
64 63 63 63 63 65 65 67 65 63 63 61 61 61 60 59 63 60 62 60 57 54 55 56 56 57 59 62 63 64 65 64 57 58 57 58 58 59 62 65 63 64 62
63 63 62 61 62 62 61 62 61 61 59 55 54 59 68 60 56 54 49 48 49 51 52 55 56 61 60 61 62 61 63 56 56 55 55 56 56 56 56 57 57 58 60
62 62 62 62 62 61 62 61 61 63 54 56 54 53 50 55 53 47 47 48 51 48 55 58 61 60 59 56 56 56 56 58 58 57 56 56 56 55 55 55 56 56 55
64 62 61 60 61 62 62 63 63 62 61 63 59 52 53 49 46 47 47 50 55 52 55 57 60 54 56 55 55 56 55 56 56 56 56 55 55 54 53 53 53 53 53
64 63 63 63 63 64 66 64 63 62 62 63 68 64 57 44 46 46 48 55 55 54 57 58 55 55 54 54 55 54 55 54 55 56 54 53 53 52 51 51 52 50 51
65 65 65 67 66 63 63 62 62 63 62 65 67 64 58 58 58 58 57 54 54 57 58 58 57 55 55 54 54 54 54 55 53 55 51 52 52 51 50 50 51 52 53
66 67 68 69 68 69 68 66 67 67 66 64 62 58 54 59 58 58 57 57 58 58 58 57 56 56 55 56 55 53 52 54 53 52 49 48 48 48 48 49 49 49 52
67 67 67 67 67 67 69 71 68 65 60 61 60 59 52 56 58 58 58 58 58 58 57 57 55 54 54 55 53 53 51 53 51 48 46 46 45 46 47 47 48 47 47
68 68 68 68 69 69 65 63 62 59 60 58 58 59 60 59 60 58 60 57 57 57 56 55 54 53 54 54 54 52 49 51 48 47 45 44 44 45 45 45 46 47 47
68 69 70 74 70 66 64 63 60 56 59 61 61 62 64 60 60 58 58 57 56 56 55 55 54 55 54 53 48 49 49 47 47 45 45 45 44 43 44 44 46 49 51
71 72 73 67 66 62 60 60 61 62 62 65 63 62 60 57 56 57 56 56 55 55 55 54 53 55 58 54 50 48 36 33 43 39 43 43 44 44 45 46 49 50 52
70 69 66 63 63 62 62 62 66 65 66 63 61 59 58 56 57 57 55 55 54 54 55 54 54 55 56 51 48 39 34 32 39 33 38 45 45 47 47 48 50 50 53

GFSGL_sfc_temp_324.txt.gz
Temp
64 64 65 64 63 63 60 60 61 58 57 57 57 59 59 59 59 59 59 61 62 61 62 64 65 64 65 66 66 65 64 63 60 63 64 66 64 64 66 64 65 64 63
63 63 63 64 65 63 62 60 59 58 58 58 58 59 59 59 59 59 60 61 61 61 62 63 61 66 61 63 64 61 59 59 59 58 60 61 62 60 63 60 64 68 61
64 62 64 64 64 63 63 63 63 59 58 58 58 58 58 58 58 59 59 59 59 59 60 60 61 62 60 61 61 59 59 61 59 57 55 56 57 60 59 59 59 58 64
66 65 63 64 64 63 63 63 59 59 58 57 57 57 57 57 58 58 58 58 59 60 61 60 60 60 60 60 61 60 60 57 56 55 54 53 55 58 58 56 59 57 57
66 65 64 65 65 62 59 59 59 58 58 58 57 57 57 58 62 57 58 58 58 59 60 60 61 64 69 66 61 60 58 57 56 55 54 53 54 53 53 56 57 59 55
66 65 66 65 60 59 58 58 57 57 57 57 56 57 57 62 65 65 62 58 58 58 57 58 59 64 64 66 67 67 64 57 55 53 53 53 53 54 55 53 54 53 52
65 66 62 61 60 59 59 57 56 56 57 57 57 58 58 59 63 64 66 59 58 57 57 57 59 67 65 61 63 65 65 66 65 58 55 55 54 56 55 55 53 51 53
62 62 61 61 59 59 58 57 57 57 57 57 58 59 59 61 62 62 64 60 59 58 58 58 58 59 60 60 60 59 60 60 60 63 59 62 59 61 57 59 55 55 55
61 61 61 60 60 59 58 58 58 58 59 59 59 59 58 59 61 61 61 59 57 58 59 59 59 59 62 62 59 59 58 60 66 63 64 64 63 62 63 53 54 49 50
61 62 62 61 60 60 59 59 59 60 60 60 60 60 61 60 60 59 60 58 57 57 58 58 62 60 60 60 57 57 56 60 60 59 57 59 62 62 62 58 60 52 51
62 62 62 61 61 60 60 59 59 59 59 59 59 59 60 60 60 59 59 59 59 58 57 61 60 60 59 57 57 57 59 62 60 58 58 58 57 57 59 60 61 58 53
62 62 61 61 64 64 60 61 63 59 58 57 57 57 60 60 59 60 58 57 61 59 61 63 62 58 57 56 56 57 56 58 58 57 56 56 59 61 62 62 61 59 61
61 60 60 61 62 62 59 59 57 57 57 57 56 56 61 63 59 59 58 58 57 59 63 63 60 57 55 56 57 58 58 57 55 55 58 60 60 61 60 57 58 58 58
60 60 60 60 60 60 60 59 57 57 56 57 57 56 59 60 60 60 60 59 58 57 59 58 60 59 58 59 59 60 58 59 58 59 57 56 57 55 55 55 53 56 58
61 61 60 60 59 59 59 62 60 64 64 62 62 62 60 61 64 60 57 59 58 56 55 53 54 54 58 55 55 56 58 57 54 54 54 54 55 55 56 55 55 54 54
60 60 59 59 58 57 57 58 58 58 57 53 55 58 67 59 55 48 49 49 50 51 51 53 55 57 56 57 58 57 55 55 55 54 55 55 54 55 55 56 56 55 53
60 60 60 59 58 57 57 56 57 63 53 52 50 50 48 54 50 45 45 47 48 49 49 56 54 56 55 54 56 54 54 54 55 55 53 54 55 55 55 54 54 54 54
60 59 60 59 57 57 57 58 58 57 58 65 58 51 53 47 46 44 45 47 51 49 50 54 54 55 56 56 54 53 53 53 53 53 53 55 54 52 52 53 52 52 52
67 65 61 60 59 59 59 58 58 60 60 60 64 59 48 45 45 44 45 52 55 54 53 53 55 56 56 54 53 53 52 52 52 52 52 54 52 52 51 50 50 48 49
63 63 62 60 59 59 59 60 62 62 60 62 59 59 56 53 56 55 51 53 53 55 56 55 56 55 53 53 53 52 52 52 51 54 53 52 48 47 47 46 46 46 46
68 64 63 61 60 62 62 62 62 61 64 63 59 58 51 57 57 55 55 55 56 55 55 55 54 53 53 53 53 54 53 53 53 52 45 44 43 43 43 44 44 45 45
63 62 62 62 63 60 60 60 60 60 59 59 57 57 51 53 55 55 55 56 56 56 55 54 53 52 52 51 52 51 50 51 50 50 46 44 43 43 43 42 42 43 44
63 64 63 62 66 63 62 63 62 61 59 58 57 57 56 56 56 56 56 56 55 55 54 53 52 51 51 52 51 51 48 46 49 46 44 43 42 42 41 41 42 42 42
64 65 64 63 64 61 60 59 58 55 57 58 58 58 57 56 55 55 54 53 53 53 52 52 51 52 52 51 49 46 48 49 48 48 47 45 42 44 41 41 42 43 44
65 64 62 62 62 60 59 58 59 59 59 59 59 57 56 55 54 54 53 52 52 52 52 51 50 50 52 52 48 45 39 36 46 41 47 45 44 45 46 45 45 44 45
64 64 63 60 59 60 59 57 59 59 60 59 57 56 57 54 53 53 52 52 51 51 50 49 50 51 49 47 45 37 34 34 41 35 40 43 46 44 42 42 44 45 45

GFSGL_sfc_temp_327.txt.gz
Temp
65 65 65 65 65 64 63 62 60 57 57 57 57 58 58 58 59 58 59 61 63 63 64 64 64 65 64 64 64 64 63 63 59 62 63 65 65 65 66 66 66 63 62
65 64 64 63 63 62 60 60 58 57 57 57 57 58 58 58 58 58 61 62 64 63 63 63 62 65 59 60 61 61 60 60 60 58 59 57 59 61 63 59 64 67 63
64 64 63 63 63 62 62 61 62 59 57 57 57 57 57 57 57 57 58 58 58 57 57 58 59 59 58 58 58 58 58 60 57 56 55 56 57 59 60 58 57 58 62
64 64 63 63 63 62 62 62 60 57 57 56 56 56 56 56 57 56 57 56 57 58 59 59 59 59 58 58 58 58 57 56 54 53 52 53 54 58 55 54 54 55 57
64 64 63 64 64 63 62 60 57 57 57 56 56 56 56 57 60 56 56 56 56 57 58 58 59 61 67 64 60 59 56 55 53 52 51 52 53 54 53 53 51 53 54
65 61 64 64 62 59 58 57 56 56 55 55 55 55 55 60 63 65 62 56 56 56 56 57 57 63 62 65 66 66 63 57 54 52 52 51 52 53 53 54 52 52 51
65 65 63 59 58 57 57 55 55 55 55 55 55 55 56 57 62 62 64 59 57 56 56 56 58 64 63 59 62 64 63 65 64 57 55 55 53 55 54 52 51 51 51
60 60 60 59 58 57 56 55 55 55 55 55 56 57 57 59 61 61 62 60 58 57 57 57 56 57 58 58 58 58 58 58 58 61 59 61 58 61 57 57 54 52 52
60 59 59 59 58 57 56 55 55 55 56 56 57 57 57 58 59 59 59 58 57 57 58 57 57 57 61 61 58 57 57 58 63 62 62 62 62 62 62 53 55 49 54
60 60 60 59 58 58 58 57 57 57 58 58 58 57 59 57 58 58 57 57 56 56 56 57 61 60 60 59 56 55 54 58 58 59 59 59 59 59 62 57 59 51 50
61 60 60 59 59 59 58 57 57 57 57 56 57 57 57 57 59 57 57 57 57 58 57 60 58 59 57 56 55 55 56 59 60 56 56 57 58 55 57 55 58 58 55
60 60 60 59 60 61 57 57 58 57 56 56 55 56 57 58 58 58 57 56 59 57 59 61 59 57 55 54 55 56 56 57 53 54 55 56 57 58 59 58 56 58 60
58 58 58 59 59 59 57 57 56 56 55 55 55 55 58 60 57 57 56 56 56 56 59 60 59 56 54 55 56 56 56 54 54 52 54 56 57 59 57 55 56 55 54
58 57 57 57 58 58 57 57 56 55 55 55 55 55 58 58 59 59 58 58 58 57 58 57 58 57 56 57 57 58 55 55 58 55 56 54 53 53 52 52 52 53 51
59 58 58 58 57 57 57 58 57 61 59 59 60 60 58 59 64 59 57 58 58 58 55 53 53 53 53 54 55 56 56 59 55 53 52 53 53 53 53 54 54 55 54
58 58 58 57 57 57 55 56 56 56 54 51 52 55 64 57 54 50 50 49 49 50 51 52 53 51 53 56 54 53 57 57 53 53 53 52 52 52 53 55 55 53 52
63 58 58 57 56 55 54 53 54 59 52 52 49 48 47 53 50 48 47 45 46 47 50 52 51 51 53 53 52 53 55 56 53 53 52 52 54 55 54 52 52 53 51
62 58 59 59 57 55 55 55 55 55 56 60 55 51 48 46 45 44 43 45 47 46 47 49 50 52 53 53 55 54 53 52 52 51 51 51 54 53 52 51 51 50 50
63 64 62 62 58 57 56 56 56 56 56 58 62 57 53 45 45 43 43 50 51 51 52 51 52 53 53 53 52 51 51 51 50 51 51 52 54 52 51 47 46 46 46
62 61 60 59 58 57 57 56 56 56 57 57 60 60 55 51 53 53 50 50 51 52 53 53 53 53 52 51 51 51 52 50 51 52 53 52 49 45 44 43 43 42 42
67 63 63 59 58 58 58 57 58 57 57 57 59 56 53 56 56 55 54 53 54 54 53 53 52 51 51 50 50 51 50 50 50 51 50 48 46 42 41 41 41 41 41
62 62 61 61 62 60 59 58 59 61 60 59 59 57 49 53 54 54 54 54 55 55 54 53 51 50 50 50 50 50 48 48 49 48 49 47 43 41 41 40 40 39 40
60 61 60 60 62 60 59 59 57 57 57 57 56 56 55 55 54 55 55 55 55 54 52 51 50 50 50 50 50 50 49 48 47 48 47 46 46 44 42 40 40 40 39
61 62 62 61 60 59 58 59 58 54 56 57 56 56 56 57 55 54 54 54 53 52 51 51 49 49 49 49 49 48 46 45 45 45 46 46 45 45 45 44 40 40 40
61 61 60 60 59 58 57 57 58 57 57 57 57 58 60 56 53 53 52 51 51 51 51 49 48 48 50 50 50 47 39 37 42 42 47 47 46 45 42 41 40 41 41
60 61 60 59 57 57 56 58 60 57 58 58 59 56 58 58 57 52 51 51 50 50 50 48 49 51 51 48 46 40 34 33 39 36 39 41 45 44 44 39 40 40 41